Find Starlink 31015

NORAD ID: 58521 Int'l Des: 2023-191 Owner: SPXS Country: US Constellation: starlink operational
LEOCIRCULAR

現在のビュー

3D地球を読み込み中...

About Starlink 31015

Starlink 31015 (NORAD 58521) is a starlink constellation satellite (v2 mini) launched Dec 7, 2023 by SPXS of US. It operates in LEO, CIRCULAR orbit with a mass of 730.00 kg.

Starlink 31015について

説明を読み込み中...

次回通過

Passes for default location (London). Set your location on the main map for personalized predictions.

高度履歴

Loading altitude history...

軌道要素

1 58521U 23191P 26166.56091492 .00016012 00000-0 58971-3 0 9997
2 58521 43.0008 270.3596 0000959 239.6147 120.4610 15.27603104140418
Epoch: Jun 15, 2026 • Age: 23 hours

現在のステータス

高度 488.7 km
速度 7.62 km/s
衛星直下点 -24.37°S, 138.57°E
打ち上げ日 Dec 7, 2023
運用期間 2.5 years
タイプ internet

技術仕様

分類 Payload
質量 730.00 kg
乾燥質量 700.00 kg
総質量 730.00 kg
長さ 0.30 m
直径 4.10 m
スパン 29.00 m
形状 Box + pan
製造者 SPXS
バスタイプ Starlink V2M
フェーズステータス In Orbit
所有者/国 SPXS/US

Most Searched